Sleetmute, AK

9:04 AM AKDT on June 29, 2017 (GMT -0800)
Sleetmute

Weather History for PASL - July, 2013

Change the Weather History Date:

Friday, July 26, 2013

  Actual Average Record
Temperature  
Mean Temperature 64 °F -  
Max Temperature 80 °F 61 °F 80 °F (2013)
Min Temperature 48 °F 46 °F 39 °F (2014)
Degree Days  
Heating Degree Days 1    
Growing Degree Days 14 (Base 50)    
Moisture  
Dew Point 52 °F    
Average Humidity 66    
Maximum Humidity 93    
Minimum Humidity 39    
Precipitation  
Precipitation 0.00 in - - ()
Sea Level Pressure  
Sea Level Pressure 30.24 in    
Wind  
Wind Speed 1 mph (North)    
Max Wind Speed 5 mph    
Max Gust Speed -    
Visibility 10 miles    
Events      
Averages and records for this station are not official NWS values.
T = Trace of Precipitation, MM = Missing Value Source: NWS Daily Summary

Daily Weather History Graph

Daily Weather History Graph

Search for Another Location

Airport or City:

Trip Planner

Search our weather history database for the weather conditions in past years. The results will help you decide how hot, cold, wet, or windy it might be!

Date:

Astronomy

Jul. 26, 2013 Rise Set
Actual Time 5:42 AM AKDT 11:25 PM AKDT
Civil Twilight 4:26 AM AKDT 12:40 AM AKDT
Nautical Twilight Sun does not set Sun does not set
Astronomical Twilight Sun does not set Sun does not set
Moon 11:47 PM AKDT (7/26) 12:22 PM AKDT (7/26)
Length of Visible Light 20h 14m
Length of Day
17h 42m
Waning Gibbous, 79% of the Moon is Illuminated
Jul 26
Waning Gibbous
Jul 29
Last Quarter
Aug 6
New
Aug 14
First Quarter
Aug 20
Full

Hourly Weather History & Observations

Time (AKDT) Temp. Heat Index Dew Point Humidity Pressure Visibility Wind Dir Wind Speed Gust Speed Precip Events Conditions
12:16 AM 59.0 °F - 53.6 °F 82% 30.18 in 10.0 mi Calm Calm - N/A   Clear
12:36 AM 57.2 °F - 51.8 °F 82% 30.19 in 10.0 mi Calm Calm - N/A   Clear
12:56 AM 57.2 °F - 51.8 °F 82% 30.19 in 10.0 mi Calm Calm - N/A   Clear
1:16 AM 55.4 °F - 51.8 °F 88% 30.19 in 10.0 mi Calm Calm - N/A   Clear
1:36 AM 55.4 °F - 51.8 °F 88% 30.20 in 10.0 mi Calm Calm - N/A   Clear
1:56 AM 55.4 °F - 51.8 °F 88% 30.20 in 10.0 mi NNE 3.5 mph - N/A   Clear
2:16 AM 53.6 °F - 50.0 °F 88% 30.20 in 10.0 mi Calm Calm - N/A   Clear
2:36 AM 53.6 °F - 50.0 °F 88% 30.20 in 10.0 mi Calm Calm - N/A   Clear
2:56 AM 53.6 °F - 48.2 °F 82% 30.20 in 10.0 mi NNE 4.6 mph - N/A   Clear
3:36 AM 51.8 °F - 48.2 °F 88% 30.21 in 10.0 mi NNE 3.5 mph - N/A   Clear
3:56 AM 51.8 °F - 48.2 °F 88% 30.21 in 10.0 mi Calm Calm - N/A   Clear
4:36 AM 50.0 °F - 46.4 °F 87% 30.21 in 10.0 mi North 3.5 mph - N/A   Clear
4:56 AM 50.0 °F - 46.4 °F 87% 30.22 in 10.0 mi Calm Calm - N/A   Clear
5:36 AM 50.0 °F - 46.4 °F 87% 30.23 in 10.0 mi North 3.5 mph - N/A   Clear
5:56 AM 50.0 °F - 46.4 °F 87% 30.23 in 10.0 mi North 4.6 mph - N/A   Clear
6:16 AM 48.2 °F - 46.4 °F 93% 30.23 in 10.0 mi North 3.5 mph - N/A   Clear
6:36 AM 48.2 °F - 46.4 °F 93% 30.23 in 10.0 mi North 3.5 mph - N/A   Clear
6:56 AM 48.2 °F - 46.4 °F 93% 30.24 in 10.0 mi NNE 3.5 mph - N/A   Clear
7:36 AM 51.8 °F - 46.4 °F 82% 30.24 in 10.0 mi Calm Calm - N/A   Clear
7:56 AM 51.8 °F - 48.2 °F 88% 30.25 in 10.0 mi Calm Calm - N/A   Clear
8:16 AM 53.6 °F - 48.2 °F 82% 30.25 in 10.0 mi North 3.5 mph - N/A   Clear
8:36 AM 55.4 °F - 48.2 °F 77% 30.25 in 10.0 mi North 3.5 mph - N/A   Clear
8:56 AM 55.4 °F - 50.0 °F 82% 30.25 in 10.0 mi NNW 3.5 mph - N/A   Clear
9:16 AM 57.2 °F - 50.0 °F 77% 30.25 in 10.0 mi Calm Calm - N/A   Clear
9:36 AM 60.8 °F - 51.8 °F 72% 30.25 in 10.0 mi Calm Calm - N/A   Clear
9:56 AM 62.6 °F - 51.8 °F 68% 30.26 in 10.0 mi Calm Calm - N/A   Clear
10:36 AM 64.4 °F - 53.6 °F 68% 30.26 in 10.0 mi Calm Calm - N/A   Clear
10:56 AM 66.2 °F - 55.4 °F 68% 30.26 in 10.0 mi Calm Calm - N/A   Clear
11:16 AM 69.8 °F - 53.6 °F 56% 30.26 in 10.0 mi Calm Calm - N/A   Clear
11:36 AM 69.8 °F - 53.6 °F 56% 30.26 in 10.0 mi Calm Calm - N/A   Clear
11:56 AM 73.4 °F - 53.6 °F 50% 30.26 in 10.0 mi Calm Calm - N/A   Clear
12:16 PM 71.6 °F - 51.8 °F 50% 30.25 in 10.0 mi Calm Calm - N/A   Clear
12:36 PM 73.4 °F - 51.8 °F 47% 30.25 in 10.0 mi Calm Calm - N/A   Clear
12:56 PM 73.4 °F - 50.0 °F 44% 30.25 in 10.0 mi Calm Calm - N/A   Clear
1:16 PM 73.4 °F - 50.0 °F 44% 30.25 in 10.0 mi Calm Calm - N/A   Clear
1:36 PM 73.4 °F - 50.0 °F 44% 30.26 in 10.0 mi Calm Calm - N/A   Clear
1:56 PM 75.2 °F - 51.8 °F 44% 30.26 in 10.0 mi Calm Calm - N/A   Clear
2:16 PM 75.2 °F - 51.8 °F 44% 30.25 in 10.0 mi North 3.5 mph - N/A   Clear
2:36 PM 75.2 °F - 53.6 °F 47% 30.25 in 10.0 mi Calm Calm - N/A   Clear
2:56 PM 77.0 °F - 51.8 °F 41% 30.25 in 10.0 mi Calm Calm - N/A   Clear
3:36 PM 77.0 °F - 53.6 °F 44% 30.25 in 10.0 mi Calm Calm - N/A   Clear
3:56 PM 78.8 °F - 53.6 °F 42% 30.25 in 10.0 mi Calm Calm - N/A   Clear
4:36 PM 78.8 °F - 53.6 °F 42% 30.24 in 10.0 mi Calm Calm - N/A   Clear
4:56 PM 78.8 °F - 51.8 °F 39% 30.24 in 10.0 mi Calm Calm - N/A   Clear
5:16 PM 78.8 °F - 53.6 °F 42% 30.24 in 10.0 mi Calm Calm - N/A   Clear
5:56 PM 80.6 °F 80.3 °F 53.6 °F 39% 30.23 in 10.0 mi Calm Calm - N/A   Clear
6:16 PM 80.6 °F 80.3 °F 53.6 °F 39% 30.23 in 10.0 mi Calm Calm - N/A   Clear
6:36 PM 80.6 °F 80.3 °F 53.6 °F 39% 30.23 in 10.0 mi Calm Calm - N/A   Clear
6:56 PM 80.6 °F 80.3 °F 53.6 °F 39% 30.23 in 10.0 mi North 3.5 mph - N/A   Clear
7:16 PM 80.6 °F 80.5 °F 55.4 °F 42% 30.23 in 10.0 mi Calm Calm - N/A   Clear
7:56 PM 78.8 °F - 53.6 °F 42% 30.23 in 10.0 mi North 3.5 mph - N/A   Partly Cloudy
8:16 PM 78.8 °F - 55.4 °F 44% 30.23 in 10.0 mi Calm Calm - N/A   Partly Cloudy
9:16 PM 75.2 °F - 59.0 °F 57% 30.24 in 10.0 mi Calm Calm - N/A   Mostly Cloudy
9:36 PM 73.4 °F - 57.2 °F 57% 30.24 in 10.0 mi Calm Calm - N/A   Scattered Clouds
9:56 PM 71.6 °F - 57.2 °F 60% 30.24 in 10.0 mi Calm Calm - N/A   Clear
10:16 PM 71.6 °F - 60.8 °F 69% 30.25 in 10.0 mi Calm Calm - N/A   Clear
10:36 PM 69.8 °F - 60.8 °F 73% 30.25 in 10.0 mi Calm Calm - N/A   Clear
11:16 PM 66.2 °F - 60.8 °F 83% 30.26 in 10.0 mi Calm Calm - N/A   Clear
11:36 PM 64.4 °F - 60.8 °F 88% 30.27 in 10.0 mi Calm Calm - N/A   Clear
11:56 PM 62.6 °F - 59.0 °F 88% 30.27 in 10.0 mi Calm Calm - N/A   Clear